N2UGS-WX Weather Reports


Display with metric or nautical units.
time (UTC)temp
F
wind
direction
speed
MPH
gust
MPH
rain 1hr
in
rain 24hr
in
rain mn
in
humidity
%
barometer
mb
20260509173402 66 260 4.0 11.0 0.00 0.00 0.00 59 1006.4
20260509172003 68 228 5.0 10.0 0.00 0.00 0.00 58 1006.1
20260509171002 67 215 5.0 8.0 0.00 0.00 0.00 55 1006.4
20260509165402 65 242 5.0 11.0 0.00 0.00 0.00 58 1006.4
20260509164001 64 274 3.0 10.0 0.00 0.00 0.00 66 1006.8
20260509162502 63 247 6.0 11.0 0.00 0.00 0.00 63 1006.8
20260509161002 62 296 3.0 9.0 0.00 0.00 0.00 65 1006.8
20260509155502 62 255 3.0 11.0 0.00 0.00 0.00 64 1006.8
20260509154002 62 168 6.0 13.0 0.00 0.00 0.00 66 1006.8
20260509152502 62 268 2.0 7.0 0.00 0.00 0.00 67 1007.1
20260509151002 61 264 4.0 9.0 0.00 0.00 0.00 69 1007.1
20260509145502 59 304 6.0 11.0 0.00 0.00 0.00 69 1007.1
20260509143902 59 187 2.0 6.0 0.00 0.00 0.00 72 1007.1
20260509142402 59 262 4.0 9.0 0.00 0.00 0.00 71 1007.1
20260509140902 58 307 2.0 7.0 0.00 0.00 0.00 74 1007.5
20260509135902 57 201 5.0 7.0 0.00 0.00 0.00 76 1007.5
20260509134402 57 253 7.0 7.0 0.00 0.00 0.00 76 1007.5
20260509132902 57 273 5.0 11.0 0.00 0.00 0.00 77 1007.5
20260509130401 56 207 3.0 4.0 0.00 0.00 0.00 79 1007.5
20260509125002 54 182 2.0 8.0 0.00 0.00 0.00 82 1007.8
20260509123902 53 261 3.0 4.0 0.00 0.00 0.00 83 1007.8
20260509122502 52 189 3.0 6.0 0.00 0.00 0.00 84 1008.1
20260509120902 50 140 2.0 2.0 0.00 0.00 0.00 87 1008.1
20260509115502 49 240 2.0 4.0 0.00 0.00 0.00 89 1008.1
20260509114002 48 177 2.0 5.0 0.00 0.00 0.00 91 1007.8
20260509112503 46 153 3.0 5.0 0.00 0.00 0.00 94 1007.8
20260509111402 45 179 2.0 2.0 0.00 0.00 0.00 94 1008.1
20260509110003 43 246 1.0 1.0 0.00 0.00 0.00 94 1008.5
20260509104502 42 172 0.0 2.0 0.00 0.00 0.00 93 1008.1
20260509103003 41 247 0.0 0.0 0.00 0.00 0.00 92 1008.1
20260509101502 41 237 0.0 0.0 0.00 0.00 0.00 91 1008.1
20260509100004 41 246 0.0 0.0 0.00 0.00 0.00 91 1008.1
20260509094503 41 183 0.0 0.0 0.00 0.00 0.00 90 1008.1
20260509093002 41 143 0.0 0.0 0.00 0.00 0.00 89 1008.1
20260509091503 41 203 0.0 0.0 0.00 0.00 0.00 88 1008.1
20260509090501 41 132 0.0 0.0 0.00 0.00 0.00 86 1008.1
20260509085402 41 265 0.0 0.0 0.00 0.00 0.00 85 1008.1
20260509083902 42 259 0.0 0.0 0.00 0.00 0.00 82 1008.1
20260509082402 42 169 0.0 0.0 0.00 0.00 0.00 81 1008.1
20260509080902 42 151 0.0 2.0 0.00 0.00 0.00 79 1008.5
20260509075402 42 192 0.0 2.0 0.00 0.00 0.00 79 1008.5
20260509074003 41 168 0.0 4.0 0.00 0.00 0.00 79 1008.5
20260509072402 41 183 0.0 1.0 0.00 0.00 0.00 78 1008.8
20260509071003 41 188 1.0 4.0 0.00 0.00 0.00 77 1008.8
20260509065902 41 249 0.0 2.0 0.00 0.00 0.00 77 1008.8
20260509064402 41 206 1.0 2.0 0.00 0.00 0.00 76 1009.1
20260509063002 41 174 0.0 3.0 0.00 0.00 0.00 75 1009.1
20260509061503 41 208 0.0 3.0 0.00 0.00 0.00 74 1009.5
20260509060003 41 210 1.0 3.0 0.00 0.00 0.00 74 1009.8
20260509054502 41 211 0.0 1.0 0.00 0.00 0.00 74 1009.8
20260509053002 41 218 0.0 2.0 0.00 0.00 0.00 74 1009.8
20260509051502 41 124 0.0 2.0 0.00 0.00 0.00 73 1010.2
20260509050002 41 154 0.0 2.0 0.00 0.00 0.00 73 1010.2
20260509044503 41 217 1.0 2.0 0.00 0.00 0.00 73 1010.2
20260509043003 41 164 0.0 3.0 0.00 0.00 0.00 73 1010.5
20260509041502 41 155 0.0 2.0 0.00 0.00 0.00 74 1010.5
20260509040002 40 190 0.0 1.0 0.00 0.00 0.00 74 1010.8
20260509035502 40 160 1.0 1.0 0.00 0.00 0.10 74 1010.8
20260509034002 40 169 0.0 0.0 0.00 0.00 0.10 72 1010.8
20260509032502 41 271 0.0 0.0 0.00 0.00 0.10 71 1010.8
20260509031502 41 262 0.0 0.0 0.00 0.00 0.10 70 1011.2
20260509030003 41 258 0.0 0.0 0.00 0.00 0.10 67 1011.2
20260509025002 41 54 0.0 0.0 0.00 0.00 0.10 67 1011.2
20260509023402 42 203 0.0 0.0 0.00 0.00 0.10 66 1011.2
20260509021901 43 343 0.0 0.0 0.00 0.00 0.10 65 1011.2
20260509020402 44 23 0.0 0.0 0.00 0.00 0.10 60 1011.2
20260509015401 44 233 0.0 0.0 0.00 0.00 0.10 58 1010.8
20260509013901 45 248 0.0 0.0 0.00 0.00 0.10 53 1010.8
20260509012402 46 277 0.0 0.0 0.00 0.00 0.10 50 1010.8
20260509010902 47 254 0.0 0.0 0.00 0.00 0.10 47 1010.8
20260509005402 49 274 0.0 0.0 0.00 0.00 0.10 40 1010.5
20260509003902 51 242 0.0 4.0 0.00 0.00 0.10 36 1010.8
20260509002902 51 286 0.0 3.0 0.00 0.00 0.10 35 1010.8
20260509001502 52 193 3.0 3.0 0.00 0.00 0.10 33 1010.5
20260509000403 53 179 3.0 3.0 0.00 0.00 0.10 32 1010.5
20260508234902 54 230 2.0 4.0 0.00 0.00 0.10 33 1010.5
20260508233502 54 240 2.0 7.0 0.00 0.00 0.10 30 1010.2
20260508231902 56 273 0.0 6.0 0.00 0.00 0.10 31 1010.2
20260508230402 56 205 1.0 7.0 0.00 0.00 0.10 30 1010.2
20260508225002 58 190 7.0 7.0 0.00 0.00 0.10 32 1010.5
20260508223502 60 283 4.0 9.0 0.00 0.00 0.10 30 1010.5
20260508222403 60 224 3.0 6.0 0.00 0.00 0.10 29 1010.5
20260508221002 60 300 3.0 7.0 0.00 0.00 0.10 29 1010.5
20260508215902 60 266 4.0 8.0 0.00 0.00 0.10 30 1010.5
20260508214502 60 283 4.0 7.0 0.00 0.00 0.10 31 1010.5
20260508213001 60 25 7.0 7.0 0.00 0.00 0.10 31 1010.5
20260508211501 61 225 6.0 7.0 0.00 0.00 0.10 32 1010.5
20260508210003 60 260 6.0 9.0 0.00 0.00 0.10 30 1010.5
20260508205001 61 272 5.0 8.0 0.00 0.00 0.10 32 1010.5
20260508203402 61 279 4.0 6.0 0.00 0.00 0.10 31 1010.5
20260508201902 62 243 6.0 11.0 0.00 0.00 0.10 30 1010.8
20260508200502 63 239 7.0 8.0 0.00 0.00 0.10 30 1010.8
20260508195003 62 277 3.0 6.0 0.00 0.00 0.10 34 1011.2
20260508193501 64 31 0.0 7.0 0.00 0.00 0.10 36 1011.5
20260508192402 64 110 4.0 6.0 0.00 0.00 0.10 36 1011.5
20260508191401 60 247 1.0 7.0 0.00 0.00 0.10 38 1011.9
20260508190003 61 106 1.0 5.0 0.00 0.00 0.10 40 1011.9
20260508184902 59 277 6.0 9.0 0.00 0.00 0.10 42 1011.9
20260508183402 61 293 4.0 8.0 0.00 0.00 0.10 44 1011.9
20260508182002 60 176 3.0 7.0 0.00 0.00 0.10 44 1011.9
20260508181001 59 259 3.0 9.0 0.00 0.00 0.10 42 1012.2
20260508175502 60 227 2.0 6.0 0.00 0.00 0.10 45 1012.2
20260508174002 60 225 3.0 5.0 0.00 0.00 0.10 46 1012.2